Date String (YYYY-MM-DD hh:mm:ss) UTC,Instrument flags,Ambient pressure (hPa),Sample flow (lpm),Bypass flow (lpm),Sample temperature (°C),Ambient temperature (°C),ASC tube jacket temperature (°C),LED temperature (°C),Box temperature (°C),Sample RH (%),Span deviation,Mass concentration (μg/m³),Mass concentration (μg/m³),Mass concentration (μg/m³)
DateTimeUTC,F1_M11,P_M11,Q1_M11,Q2_M11,T1_M11,T2_M11,T3_M11,T4_M11,T5_M11,U1_M11,ZSPAN_M11,X0_M11,X2_M11,X1_M11
2022-12-23 20:00:00,,0830.8,4.95,0.00,23.0,22.5,00.0,31.6,24.9,03.0,0003.1,0011.68,0006.33,0005.75
2022-12-23 20:01:00,,0830.7,5.03,0.00,23.0,22.3,00.0,31.6,24.8,03.1,0003.3,0011.67,0006.29,0005.70
2022-12-23 20:02:00,,0830.8,5.00,0.00,23.0,22.2,00.0,31.6,24.8,03.1,0003.3,0011.67,0006.25,0005.64
2022-12-23 20:03:00,,0830.8,4.96,0.00,23.0,22.2,00.0,31.6,24.8,03.0,0002.9,0011.60,0006.16,0005.58
2022-12-23 20:04:00,,0830.8,5.03,0.00,23.0,22.1,00.0,31.6,24.8,03.1,0002.3,0010.89,0006.06,0005.50
2022-12-23 20:05:00,,0830.7,5.03,0.00,23.0,22.0,00.0,31.6,24.8,03.1,0002.3,0010.98,0006.03,0005.45
2022-12-23 20:06:00,,0830.7,4.97,0.00,23.0,22.0,00.0,31.7,24.8,03.0,0002.6,0010.59,0005.94,0005.41
2022-12-23 20:07:00,,0830.8,5.01,0.00,23.0,21.9,00.0,31.7,24.8,03.1,0002.4,0010.50,0005.91,0005.36
2022-12-23 20:08:00,,0830.8,5.04,0.00,23.0,21.9,00.0,31.7,24.8,03.0,0002.7,0010.24,0005.84,0005.31
2022-12-23 20:09:00,,0830.7,5.00,0.00,23.0,21.9,00.0,31.7,24.8,03.0,0002.9,0009.97,0005.80,0005.26
2022-12-23 20:10:00,,0830.7,4.95,0.00,23.0,21.8,00.0,31.7,24.8,03.0,0002.6,0010.06,0005.78,0005.21
2022-12-23 20:11:00,,0830.6,5.02,0.00,23.0,21.8,00.0,31.7,24.8,03.0,0002.1,0009.96,0005.72,0005.16
2022-12-23 20:12:00,,0830.6,5.02,0.00,23.0,21.7,00.0,31.7,24.8,03.0,0001.8,0010.91,0005.66,0005.10
2022-12-23 20:13:00,,0830.5,4.99,0.00,23.0,21.7,00.0,31.7,24.8,03.0,0002.1,0010.80,0005.58,0005.05
2022-12-23 20:14:00,,0830.5,4.97,0.00,23.0,21.7,00.0,31.7,24.7,02.9,0003.0,0011.12,0005.56,0005.00
2022-12-23 20:15:00,,0830.5,5.03,0.00,23.0,21.7,00.0,31.7,24.7,03.0,0003.6,0011.32,0005.51,0004.95
2022-12-23 20:16:00,,0830.4,5.03,0.00,23.0,21.6,00.0,31.7,24.7,03.1,0003.9,0011.23,0005.46,0004.90
2022-12-23 20:17:00,,0830.4,4.96,0.00,22.9,21.6,00.0,31.7,24.7,03.1,0003.8,0011.62,0005.47,0004.88
2022-12-23 20:18:00,,0830.5,5.00,0.00,22.9,21.5,00.0,31.7,24.7,03.1,0003.3,0011.66,0005.42,0004.86
2022-12-23 20:19:00,,0830.5,5.03,0.00,22.9,21.4,00.0,31.7,24.6,03.1,0002.6,0011.65,0005.42,0004.86
2022-12-23 20:20:00,,0830.4,5.00,0.00,22.9,21.4,00.0,31.7,24.6,03.2,0002.2,0011.64,0005.45,0004.89
2022-12-23 20:21:00,,0830.4,4.96,0.00,22.9,21.3,00.0,31.7,24.6,03.4,0002.1,0011.82,0005.57,0004.99
2022-12-23 20:22:00,,0830.4,5.00,0.00,22.8,21.1,00.0,31.7,24.5,03.5,0002.2,0011.98,0005.74,0005.15
2022-12-23 20:23:00,,0830.4,5.03,0.00,22.8,21.5,00.0,31.6,24.6,03.4,0002.7,0011.64,0005.88,0005.30
2022-12-23 20:24:00,,0830.4,5.00,0.00,22.9,22.3,00.0,31.6,24.8,03.4,0002.9,0012.14,0006.08,0005.45
2022-12-23 20:25:00,,0830.4,4.97,0.00,23.0,22.4,00.0,31.6,24.8,03.3,0002.5,0011.95,0006.21,0005.60
2022-12-23 20:26:00,,0830.4,5.04,0.00,22.9,21.9,00.0,31.7,24.7,03.3,0002.4,0011.93,0006.40,0005.76
2022-12-23 20:27:00,,0830.4,5.01,0.00,22.8,21.4,00.0,31.7,24.5,03.3,0002.0,0012.05,0006.58,0005.90
2022-12-23 20:28:00,,0830.4,4.97,0.00,22.8,21.0,00.0,31.6,24.4,03.3,0002.0,0011.86,0006.70,0006.02
2022-12-23 20:29:00,,0830.4,4.99,0.00,22.7,20.7,00.0,31.6,24.2,03.3,0002.4,0011.90,0006.82,0006.13
2022-12-23 20:30:00,,0830.5,5.03,0.00,22.6,20.5,00.0,31.6,24.1,03.3,0003.1,0012.14,0006.94,0006.23
2022-12-23 20:31:00,,0830.4,5.01,0.00,22.6,20.3,00.0,31.6,24.0,03.3,0003.3,0012.33,0007.01,0006.30
2022-12-23 20:32:00,,0830.4,4.98,0.00,22.5,20.2,00.0,31.5,24.0,03.4,0003.5,0012.16,0006.98,0006.31
2022-12-23 20:33:00,,0830.4,4.97,0.00,22.4,20.2,00.0,31.5,23.9,03.4,0003.8,0012.12,0006.93,0006.27
2022-12-23 20:34:00,,0830.4,5.00,0.00,22.4,20.2,00.0,31.5,23.9,03.4,0003.4,0011.48,0006.90,0006.25
2022-12-23 20:35:00,,0830.4,5.03,0.00,22.3,20.2,00.0,31.4,23.9,03.4,0002.9,0011.22,0006.87,0006.24
2022-12-23 20:36:00,,0830.4,5.01,0.00,22.3,20.2,00.0,31.4,23.8,03.4,0002.8,0011.27,0006.90,0006.24
2022-12-23 20:37:00,,0830.5,4.97,0.00,22.2,20.2,00.0,31.3,23.8,03.5,0002.5,0011.31,0006.90,0006.23
2022-12-23 20:38:00,,0830.4,4.98,0.00,22.2,20.3,00.0,31.3,23.8,03.5,0003.1,0011.33,0006.89,0006.24
2022-12-23 20:39:00,,0830.4,5.01,0.00,22.2,20.4,00.0,31.3,23.8,03.5,0003.4,0011.53,0006.90,0006.24
2022-12-23 20:40:00,,0830.3,5.02,0.00,22.2,21.0,00.0,31.2,23.9,03.5,0003.6,0011.88,0006.91,0006.24
2022-12-23 20:41:00,,0830.4,5.00,0.00,22.3,22.0,00.0,31.2,24.2,03.5,0003.6,0012.06,0006.90,0006.25
2022-12-23 20:42:00,,0830.5,4.98,0.00,22.4,22.4,00.0,31.2,24.3,03.6,0003.3,0012.15,0006.90,0006.25
2022-12-23 20:43:00,,0830.4,5.03,0.00,22.5,22.2,00.0,31.2,24.4,03.5,0003.2,0012.15,0006.90,0006.25
2022-12-23 20:44:00,,0830.4,4.94,0.00,22.5,22.0,00.0,31.3,24.3,03.5,0003.1,0012.05,0006.90,0006.25
2022-12-23 20:45:00,,0830.4,5.03,0.00,22.5,21.8,00.0,31.3,24.3,03.4,0003.0,0012.00,0006.90,0006.24
2022-12-23 20:46:00,,0830.4,5.01,0.00,22.5,21.7,00.0,31.3,24.3,03.5,0003.1,0011.98,0006.89,0006.25
2022-12-23 20:47:00,,0830.5,4.97,0.00,22.5,21.6,00.0,31.3,24.3,03.5,0003.1,0011.89,0006.84,0006.24
2022-12-23 20:48:00,,0830.5,4.99,0.00,22.5,21.5,00.0,31.3,24.3,03.5,0003.4,0011.83,0006.84,0006.24
2022-12-23 20:49:00,,0830.4,5.02,0.00,22.5,21.4,00.0,31.3,24.3,03.5,0003.2,0011.79,0006.85,0006.25
2022-12-23 20:50:00,,0830.4,5.02,0.00,22.5,21.2,00.0,31.3,24.3,03.5,0002.9,0011.87,0006.84,0006.26
2022-12-23 20:51:00,,0830.4,4.97,0.00,22.5,21.2,00.0,31.3,24.3,03.4,0002.6,0011.48,0006.87,0006.27
2022-12-23 20:52:00,,0830.5,4.97,0.00,22.5,21.2,00.0,31.3,24.3,03.4,0001.8,0011.29,0006.84,0006.26
2022-12-23 20:53:00,,0830.5,5.03,0.00,22.5,21.3,00.0,31.3,24.3,03.4,0001.4,0010.99,0006.83,0006.26
2022-12-23 20:54:00,,0830.5,5.02,0.00,22.5,21.3,00.0,31.3,24.3,03.4,0001.6,0011.09,0006.85,0006.27
2022-12-23 20:55:00,,0830.4,4.97,0.00,22.5,21.3,00.0,31.3,24.3,03.4,0002.4,0011.05,0006.85,0006.26
2022-12-23 20:56:00,,0830.4,4.98,0.00,22.5,21.3,00.0,31.3,24.3,03.4,0002.6,0011.06,0006.85,0006.25
2022-12-23 20:57:00,,0830.5,5.02,0.00,22.5,21.3,00.0,31.3,24.3,03.4,0002.8,0011.65,0006.85,0006.23
2022-12-23 20:58:00,,0830.5,5.02,0.00,22.5,21.3,00.0,31.3,24.3,03.3,0002.5,0012.00,0006.85,0006.21
2022-12-23 20:59:00,,0830.5,5.00,0.00,22.5,21.3,00.0,31.3,24.3,03.3,0002.7,0012.18,0006.83,0006.19
